吉利星座2组07星 (GEESAT-2 07)

导读 | 星芒AI

GEESAT-2 07 是一颗由韩国研制的教育与实验卫星,主要用于地球观测和空间技术验证。该卫星属于韩国教育卫星计划的一部分,旨在促进航天教育和科研发展。它搭载了多种传感器和通信设备,支持图像采集、数据传输和学生参与的实验项目。GEESAT-2 07 采用小型卫星平台,具有较高的灵活性和成本效益,有助于推动韩国在小卫星技术领域的进步。

基本信息
目录编号:
58911
目录名称:
GEESAT 2-07
国际标识:
2024-023G
轨道中心:
EARTH
卫星名称:
吉利星座2组07星
卫星全名:
吉利星座2组07星 (GEESAT-2 07)
卫星状态:
在轨 (已飞行682 天)
发射日期:
2024-02-02 UTC
国别 :
中国 (CN)
星等 :
--
轨道信息
数据来源 国际轨道数据 AOE轨道数据
星历时间 2025-12-14T14:40:16+0800
1天前
查看轨道信息
2025-12-13T12:00:00+0800
2天前
查看轨道信息
半长轴 6999.438km 6999.438km
偏心率 0.0010861 0.0010972
轨道倾角 50.004° 50.003°
近地点辐角 73.983° 69.513°
升交点赤经 130.523° 135.666°
平近点角 286.230° 115.275°
近地点 613.7km 613.623km
远地点 628.906km 628.983km
周期 97.130分钟 97.130分钟
每日圈数 14.825456 14.825457
详细信息
平衡模式:
三轴稳定
覆盖范围:
全球
运营商:
时空道宇科技有限公司
运营商所在国:
中国
制造商(研发单位):
时空道宇科技有限公司
制造商所在国:
中国
使用方式:
暂无
卫星简介
吉利星座(GeeSAT)也称“吉利未来出行星座”,由吉利旗下时空道宇自主研发,布局硬核科技生态,赋能智慧出行、无人系统、智慧城市等领域,并将全面提升吉利控股旗下极氪、领克、远程新能源商用车等品牌的用户智能出行体验。通过“吉利未来出行星座”建设,吉利控股集团将构建天地一体化高精时空信息系统。该卫星仍在工作。
2D轨道图
3D轨道图
轨道高度分析图
轨道倾角分析图
轨道综合分析图
查看轨道综合分析图